GFSSW_500_spd_000.txt.gz
Wind_Speed
35 37 38 38 39 39 44 51 53 55 55 57 57 52 50 48 51 51 45 38 41 43 40 41 40 41 40 35 38 46 48 32 28 29 32 28 35 31 32 35 36 37 38 34 36
34 35 38 42 42 41 37 41 50 55 56 56 56 55 55 53 51 49 41 43 45 43 36 38 37 40 42 42 44 44 44 37 36 33 35 37 39 39 27 26 30 38 43 43 38
36 36 37 38 43 46 47 44 44 48 55 58 58 63 62 56 55 53 55 48 51 49 40 43 42 44 46 45 40 43 49 42 42 43 42 43 42 32 22 25 28 30 35 35 29
35 37 38 39 41 45 46 49 48 49 51 53 59 60 61 59 57 56 57 53 51 51 47 46 48 50 49 47 39 51 48 47 43 42 45 38 33 19 22 24 25 31 35 28 20
37 40 40 42 36 37 43 48 51 51 50 52 53 57 60 57 52 57 56 55 55 52 49 49 51 48 50 45 46 51 47 52 49 44 34 31 25 18 16 20 24 31 30 22 21
41 40 42 42 44 43 40 39 45 48 51 53 54 55 56 56 52 58 62 61 63 59 54 54 52 47 56 54 53 50 50 46 42 27 24 27 18 22 12 19 22 25 23 20 21
42 45 46 47 48 50 50 46 48 52 50 51 51 51 50 42 45 53 60 62 57 54 58 57 55 57 56 58 54 48 43 26 23 18 15 22 20 11 14 20 16 17 22 18 19
50 50 50 50 52 53 52 52 56 54 55 55 50 51 40 37 41 47 52 56 57 57 56 53 54 58 62 58 50 43 29 18 13 17 8 21 10 14 13 14 11 18 26 27 27
58 60 60 59 58 56 55 56 56 55 58 58 53 48 39 37 35 33 44 52 59 65 64 59 64 62 60 56 50 33 26 20 14 13 15 22 14 11 15 17 14 22 23 30 27
68 68 68 68 67 65 62 60 58 59 59 56 52 50 47 42 41 40 41 44 48 47 53 63 62 61 61 55 39 28 27 21 19 14 19 18 17 13 15 15 17 18 21 26 28
76 76 76 76 75 73 70 67 64 63 60 58 55 49 49 48 45 44 42 39 36 38 50 58 62 60 47 41 32 32 30 24 15 18 24 21 25 15 13 21 18 20 21 21 17
81 83 82 80 79 78 77 75 72 68 65 59 56 54 50 48 45 45 44 45 39 35 30 44 50 41 40 34 36 34 30 28 18 20 27 22 24 17 13 23 24 20 21 21 22
73 73 77 80 80 80 78 79 78 72 69 64 58 55 50 53 50 45 47 45 44 40 35 30 29 37 35 36 35 33 33 22 22 19 27 23 23 21 18 21 23 19 19 21 21
49 49 49 53 63 70 72 76 79 77 74 68 64 58 55 53 54 46 46 47 47 43 38 36 32 34 37 38 36 39 28 22 23 23 26 23 24 23 20 19 21 17 19 17 20
32 34 33 31 34 41 50 57 67 74 74 66 66 66 61 56 53 47 45 42 47 44 45 34 35 38 40 36 38 38 28 24 21 26 20 25 27 8 10 14 13 12 10 15 19
33 35 37 38 38 36 35 36 42 60 66 55 65 64 64 58 55 50 49 45 41 43 48 47 44 43 40 39 39 30 33 28 29 29 31 16 15 3 8 12 10 10 13 17 21
30 31 31 30 34 35 37 39 42 53 51 37 57 65 62 58 53 53 53 50 47 49 50 46 47 43 39 42 40 39 38 37 35 36 17 12 13 1 8 11 9 10 15 17 25
27 30 31 29 30 27 25 32 42 40 40 35 49 50 52 49 41 36 52 52 46 43 41 36 36 37 32 39 42 45 38 40 37 27 15 15 17 2 8 11 6 11 16 17 27
32 34 34 28 24 22 26 29 27 33 37 42 45 48 50 57 47 38 41 50 48 44 38 37 34 29 31 28 37 39 37 26 28 21 26 16 16 13 12 12 5 11 15 16 15
32 34 27 17 19 24 25 28 25 23 33 44 49 45 56 60 55 50 54 42 45 47 44 36 32 28 25 30 32 35 31 36 32 28 25 19 18 15 11 14 9 11 13 15 20
34 27 16 7 6 8 12 17 23 22 22 36 57 45 51 60 60 58 64 54 44 35 41 42 38 31 34 35 34 37 41 37 28 27 25 17 14 7 13 20 16 14 16 16 23
23 10 3 5 6 14 8 9 16 18 21 33 52 55 49 61 62 64 67 63 61 55 48 41 44 36 34 36 30 29 33 33 31 31 28 22 14 18 16 11 9 13 14 19 22
15 8 6 6 11 13 13 9 5 14 22 28 49 50 53 59 62 65 68 68 63 62 57 45 46 42 41 38 38 40 38 38 33 30 28 25 12 20 18 7 10 9 10 17 22
12 4 5 6 3 12 13 13 17 16 18 25 42 48 53 57 67 70 64 65 65 62 62 60 54 48 47 42 38 39 40 36 35 34 27 26 17 17 12 10 8 11 10 13 21
13 6 9 8 10 12 15 17 16 16 23 20 34 40 54 56 53 74 60 66 64 64 61 60 59 54 46 41 39 37 37 35 34 28 28 22 21 20 16 11 12 12 9 9 11
22 11 9 10 9 12 15 8 8 11 19 21 24 29 48 59 53 67 65 64 64 60 58 61 56 53 49 45 43 43 42 37 34 31 29 23 23 21 20 19 17 13 6 5 9
22 18 14 14 14 14 13 5 12 12 11 17 25 26 33 54 56 53 68 66 69 61 57 61 59 56 54 49 45 52 47 43 36 32 29 26 18 26 22 20 18 11 8 7 7

GFSSW_500_spd_003.txt.gz
Wind_Speed
28 29 34 34 35 35 37 40 44 49 55 59 58 55 63 61 55 48 40 40 44 49 43 39 35 35 39 42 42 41 45 39 36 41 32 32 33 32 39 42 39 47 41 34 38
35 36 36 39 41 43 45 44 45 47 50 54 61 59 60 62 62 57 40 47 48 51 43 36 38 40 42 42 47 46 42 36 40 38 39 38 42 35 39 44 48 40 36 36 39
37 37 40 42 43 43 45 48 49 47 46 46 53 59 63 61 56 48 45 43 50 52 45 45 42 44 43 43 45 48 46 42 44 41 45 44 42 41 42 37 31 31 35 38 30
35 38 40 43 45 46 46 46 46 50 50 48 44 50 58 61 63 55 51 50 48 52 51 53 45 48 49 47 42 54 48 45 41 40 43 45 51 44 36 32 27 33 35 28 22
36 38 40 42 45 46 47 49 49 49 51 51 53 52 52 58 58 60 57 57 54 53 56 55 55 51 53 47 49 55 48 47 44 42 43 49 47 37 29 24 29 32 25 17 21
37 40 43 44 46 49 51 51 51 49 47 53 55 56 57 55 50 52 58 58 64 64 64 63 58 54 58 52 54 51 51 48 45 37 43 35 30 28 12 23 29 28 14 17 23
46 48 48 48 49 52 52 52 55 56 51 49 50 55 56 46 45 48 57 57 62 65 67 66 64 62 63 57 54 55 56 51 32 33 21 33 27 23 15 26 23 21 16 19 18
55 57 58 58 59 58 57 57 57 59 59 54 52 52 42 42 49 49 47 51 53 57 60 63 65 67 69 63 60 60 57 40 27 32 19 34 14 15 26 24 18 14 15 11 15
62 65 67 69 69 68 67 65 63 61 63 62 58 54 44 45 48 42 46 45 46 51 56 60 63 65 67 64 65 63 46 37 29 29 27 35 26 23 23 22 16 12 13 13 15
68 72 76 79 79 78 76 74 71 69 66 64 64 61 54 53 50 47 46 48 43 47 52 58 61 63 62 64 61 53 49 45 32 15 28 34 34 24 23 25 18 13 11 13 14
81 85 84 83 85 87 86 83 80 77 72 69 66 62 61 59 56 55 48 49 47 42 44 54 57 57 56 55 57 56 52 45 29 18 33 33 31 18 27 28 18 11 12 12 16
91 93 88 79 76 87 87 89 88 85 80 75 71 66 63 63 60 56 54 53 52 44 36 39 45 42 47 52 55 54 52 42 29 15 35 31 32 25 26 25 15 11 9 14 17
67 58 56 53 50 56 66 79 84 88 85 76 76 73 66 66 64 58 51 51 52 50 48 43 29 29 32 39 46 48 47 32 28 19 35 38 34 27 26 18 11 10 11 14 13
45 39 35 34 36 36 38 44 53 70 84 80 73 77 72 68 66 58 56 53 52 53 46 46 38 34 30 34 38 42 28 26 28 27 33 38 43 27 25 12 15 14 16 10 12
36 35 35 36 37 36 34 34 36 43 63 63 73 75 75 73 67 58 57 54 51 51 49 45 37 34 32 24 29 26 28 30 28 32 36 35 41 15 19 12 16 18 10 9 8
33 33 33 34 36 35 35 36 36 33 42 32 51 63 73 74 73 66 59 55 51 48 47 50 43 38 33 28 37 34 33 32 33 37 47 31 38 9 16 18 14 4 7 11 8
32 31 32 32 33 32 31 29 32 39 25 26 43 50 67 70 72 73 63 62 59 56 53 55 53 44 35 36 38 39 38 38 41 46 46 26 32 14 16 12 6 5 7 11 9
34 36 37 34 33 33 30 29 30 31 33 34 38 36 53 58 62 70 66 62 58 52 51 47 49 48 40 39 37 37 41 44 47 48 37 28 24 13 17 8 5 4 7 7 10
34 37 37 35 32 23 23 26 26 22 33 40 34 33 44 50 55 60 64 63 58 54 52 47 44 42 40 38 37 38 48 41 41 37 39 35 21 23 10 4 2 4 4 7 13
37 34 31 21 15 9 15 22 24 25 25 31 43 44 36 41 50 54 61 69 63 57 52 45 42 38 34 33 37 40 45 42 45 43 40 28 24 15 9 5 4 4 4 9 16
34 28 15 3 6 7 9 13 20 27 24 25 35 49 42 41 53 61 64 69 67 64 61 52 45 35 37 38 38 42 47 44 42 39 34 25 21 16 11 10 5 2 6 11 15
33 19 9 4 6 8 14 14 10 15 21 19 31 53 44 47 52 59 65 73 72 68 65 58 52 40 35 40 37 41 40 36 39 34 30 26 20 20 14 7 5 4 4 16 12
30 16 9 4 7 13 18 15 11 10 15 21 27 53 53 51 57 55 62 69 66 71 69 64 59 50 39 43 41 39 37 39 35 36 35 30 20 20 13 8 6 5 5 13 15
27 17 11 9 8 12 13 15 15 15 12 21 24 34 49 54 59 58 59 66 61 71 71 68 63 56 50 42 37 40 42 42 39 38 26 24 23 17 17 14 11 5 4 8 13
23 19 12 13 11 13 16 15 17 14 17 19 18 26 34 56 60 57 59 62 57 67 70 67 63 57 48 42 39 40 39 38 39 30 33 20 23 19 18 14 9 6 1 6 8
24 20 12 11 16 18 20 15 9 13 10 17 17 20 24 42 58 63 56 66 62 61 67 66 64 62 56 48 45 43 42 40 37 32 29 24 21 19 21 17 11 6 3 2 6
19 24 24 18 14 13 11 11 12 14 12 15 13 19 22 30 55 58 56 64 62 58 69 66 64 64 60 51 48 53 49 43 36 34 28 27 21 23 24 15 12 6 3 3 3

GFSSW_500_spd_006.txt.gz
Wind_Speed
29 30 31 34 35 36 36 39 42 43 44 45 48 57 65 63 65 63 54 50 57 58 55 48 43 41 45 43 39 34 40 36 30 30 33 34 35 31 39 40 40 42 42 47 48
31 33 35 36 37 38 40 40 40 42 43 46 49 51 55 59 58 62 55 65 67 56 45 38 45 41 48 39 39 39 41 37 31 36 36 35 35 38 40 42 39 41 42 41 42
36 37 38 38 40 42 43 44 46 48 49 48 48 48 48 52 54 53 58 57 58 53 48 42 48 51 52 45 38 40 43 37 33 37 40 37 33 40 39 43 45 46 39 40 41
36 38 39 41 41 42 45 48 50 51 50 52 52 52 50 50 52 57 56 56 56 57 53 46 51 53 53 51 39 47 43 40 38 39 42 37 39 36 42 46 44 38 32 37 35
35 38 40 42 45 47 48 48 51 53 55 55 53 51 52 52 46 51 55 60 61 57 49 50 52 50 54 52 49 49 44 46 46 45 42 36 38 42 31 31 30 28 30 32 33
39 40 41 42 44 47 50 52 54 54 53 54 56 55 53 50 47 48 48 54 59 60 55 53 56 53 52 55 54 50 51 51 48 47 40 35 42 36 20 30 26 30 29 28 32
47 49 50 51 52 53 53 53 55 57 58 60 59 57 55 46 48 51 53 50 56 61 61 59 60 60 57 56 58 58 57 54 51 43 37 41 44 22 29 31 37 32 30 27 34
54 56 57 59 60 62 63 63 62 61 61 63 62 61 53 49 44 51 50 51 53 55 57 63 72 73 67 65 63 64 62 60 50 41 41 45 45 26 32 40 38 28 27 23 27
58 61 64 66 67 69 71 73 72 71 69 68 65 65 58 56 50 47 51 52 53 54 54 57 65 68 69 71 72 69 64 60 49 43 46 41 44 28 31 40 29 28 28 26 27
62 64 67 72 76 78 79 80 81 80 78 76 73 69 66 64 58 53 54 49 51 53 55 57 59 60 60 64 62 63 61 57 52 47 47 44 40 38 25 39 26 29 28 30 25
64 70 76 81 85 87 90 90 90 88 85 85 81 76 72 70 65 62 58 55 54 56 57 53 52 53 50 57 60 61 59 56 51 47 44 40 39 34 27 34 27 28 29 27 19
73 78 82 85 84 81 79 80 83 88 90 90 88 86 81 78 72 68 66 61 57 54 51 50 49 38 41 43 49 52 53 51 44 43 45 42 40 35 28 27 30 30 22 19 19
78 78 72 64 60 57 56 55 58 63 75 79 86 91 86 82 79 71 69 63 57 56 51 46 36 36 35 32 37 41 42 40 41 41 45 41 42 37 27 29 32 26 21 20 18
67 59 52 48 47 47 41 40 43 44 52 54 64 77 86 89 85 72 69 64 60 58 54 53 47 44 41 34 27 33 29 35 37 37 40 35 47 37 29 30 28 19 22 21 20
51 49 47 44 39 39 37 39 42 42 45 28 38 58 72 79 82 74 69 66 62 58 56 52 51 49 42 29 27 29 30 35 38 36 40 38 47 28 25 21 17 19 19 15 18
48 47 44 40 37 33 34 36 36 37 35 26 30 31 48 69 78 76 70 70 63 59 55 52 46 45 40 36 35 29 31 25 33 39 51 35 37 21 18 15 22 22 13 16 16
44 42 39 37 37 37 37 39 38 38 28 34 32 26 31 47 66 70 68 71 67 64 62 59 54 48 47 41 40 39 37 33 37 43 47 25 39 20 10 21 22 16 16 19 11
41 42 41 39 39 38 37 38 40 34 28 35 26 28 28 34 48 62 65 65 64 62 60 58 55 53 49 45 33 29 33 37 36 33 33 26 36 4 18 20 20 20 19 12 7
43 44 40 36 33 25 25 29 26 20 24 28 32 33 32 22 34 54 61 62 62 63 62 61 57 50 45 44 38 31 40 27 33 36 30 35 25 17 27 22 15 17 9 7 6
43 40 33 22 11 10 10 9 13 19 20 22 25 35 37 27 27 42 59 64 65 65 65 61 59 50 43 42 42 42 36 37 38 38 40 34 22 18 22 18 19 9 8 5 6
37 36 23 9 6 10 9 12 17 19 18 23 21 28 39 30 35 39 50 67 70 68 65 63 59 49 47 48 46 49 45 46 42 45 38 33 20 15 22 20 12 12 9 6 5
32 32 22 8 9 16 18 17 17 18 18 13 17 21 40 40 37 40 43 49 70 71 69 66 62 51 48 44 40 38 40 40 39 40 35 24 20 24 25 22 13 11 12 5 8
29 32 25 13 14 13 18 18 16 13 16 13 14 18 34 45 38 47 46 41 54 72 72 69 67 56 52 49 46 44 39 41 41 38 34 25 18 22 22 22 14 12 10 2 8
23 29 27 19 11 18 14 18 20 18 14 12 12 16 26 35 48 45 48 43 44 67 75 73 67 61 55 47 39 42 41 43 43 40 31 24 22 24 28 20 13 8 9 6 4
20 26 26 22 17 15 15 18 16 11 13 13 11 13 18 20 38 46 46 42 43 56 74 74 67 60 55 50 44 45 37 39 41 29 32 25 24 20 22 18 12 12 11 5 4
20 27 24 23 24 16 12 11 8 14 10 8 7 13 17 18 33 45 44 44 42 49 71 74 70 64 57 50 46 46 44 42 37 31 31 27 29 24 21 19 8 17 12 3 2
19 25 24 26 22 17 15 14 13 12 11 11 8 7 17 19 20 38 45 50 35 49 65 73 71 67 60 52 47 48 44 40 39 32 30 29 20 23 24 18 15 16 11 6 1

GFSSW_500_spd_009.txt.gz
Wind_Speed
38 39 38 37 36 36 36 36 39 44 48 50 49 60 59 56 54 59 58 44 49 53 58 53 41 41 41 40 45 44 47 40 34 31 29 31 32 36 37 33 31 34 36 44 47
32 34 35 37 39 39 38 39 39 40 46 49 50 53 54 58 62 63 53 55 59 60 57 56 55 55 57 52 53 51 51 41 29 27 32 36 40 38 38 36 23 37 41 49 51
31 34 37 39 40 40 41 43 43 43 44 46 49 52 52 54 58 64 63 62 63 64 63 64 61 61 62 51 53 51 49 40 35 29 39 37 38 39 37 31 28 39 41 43 44
32 35 37 39 40 41 43 44 45 47 47 48 48 48 48 51 53 55 60 70 70 69 67 66 66 64 58 54 43 51 50 49 41 36 43 36 38 34 39 26 33 38 44 45 40
33 34 36 38 40 43 45 46 47 47 48 49 52 53 55 54 50 54 52 54 58 63 64 66 66 62 55 49 52 52 51 49 50 40 41 41 36 35 36 23 37 42 41 41 36
37 39 41 43 44 46 47 47 49 51 51 52 53 53 54 53 52 55 57 54 55 58 62 64 64 60 56 52 52 47 49 50 52 49 38 42 34 42 30 28 38 41 42 41 38
44 45 47 48 50 52 54 55 55 55 54 55 56 57 54 51 53 52 57 57 55 53 58 63 63 64 62 58 53 51 53 52 52 47 44 42 35 39 31 36 41 42 44 42 38
47 48 51 52 54 55 56 57 58 59 61 61 61 59 55 58 58 54 56 57 57 57 54 63 68 68 68 64 58 56 58 60 53 50 48 48 38 40 31 37 36 39 44 36 30
52 55 57 58 58 59 60 61 61 63 65 67 68 67 63 64 62 62 61 59 59 58 60 58 64 66 66 65 64 64 62 61 57 52 54 52 47 39 33 36 35 36 37 30 25
54 56 59 62 63 65 67 68 69 69 68 68 69 69 70 71 69 64 65 64 59 59 64 61 61 62 61 64 61 57 58 55 55 55 60 57 53 51 37 39 34 33 33 29 27
55 57 60 63 66 68 71 74 77 77 77 76 75 77 75 79 77 73 69 68 66 61 58 60 65 58 54 56 58 59 60 58 58 54 54 51 53 51 36 35 33 31 29 28 24
59 63 67 71 75 79 81 81 81 83 79 77 78 80 77 83 80 82 79 72 70 66 59 60 57 47 51 52 51 52 53 53 49 45 47 48 48 46 37 35 33 28 28 26 27
68 72 75 75 75 74 67 63 65 63 75 57 65 72 73 79 85 87 86 78 71 69 66 61 45 44 48 44 44 41 39 35 37 33 41 45 50 47 38 36 33 26 28 23 25
73 72 67 57 53 53 49 50 51 51 54 46 49 52 57 68 76 86 88 83 77 71 67 63 55 51 46 47 44 42 25 23 25 29 39 42 52 41 36 37 32 23 26 22 27
62 56 50 48 45 45 43 43 42 41 43 39 43 38 42 51 62 72 80 81 76 73 71 64 64 58 49 44 34 30 27 25 27 34 40 39 45 33 29 24 23 24 25 26 22
50 47 45 43 44 43 43 42 39 39 37 33 35 30 30 36 42 55 68 75 72 67 68 64 62 56 48 45 37 38 35 34 34 37 41 34 39 30 14 22 19 20 26 20 21
46 44 44 45 44 41 40 38 36 39 33 34 30 30 30 30 33 38 56 65 71 72 69 67 67 61 57 55 50 47 43 44 39 38 34 27 37 13 12 6 17 22 21 20 19
45 43 42 40 37 31 27 27 29 30 30 31 32 28 27 29 20 30 47 54 64 69 69 68 67 65 59 54 51 47 40 42 35 31 29 25 32 22 13 10 15 17 18 21 18
38 36 36 36 23 14 16 16 13 14 18 23 21 25 26 28 25 20 40 54 65 68 71 69 65 60 55 50 45 42 41 31 33 32 21 28 18 13 14 18 20 12 18 16 16
28 30 37 26 12 15 11 15 15 13 13 16 17 19 23 30 28 23 34 48 65 70 71 70 69 62 55 50 46 43 37 39 38 34 27 25 21 13 18 20 18 18 18 16 13
24 30 32 25 15 9 12 15 15 15 13 15 12 14 18 28 33 22 33 35 57 68 70 70 70 65 60 57 51 50 47 45 39 36 30 22 19 11 17 20 14 19 21 16 8
22 27 31 25 19 20 17 19 19 19 18 14 10 9 15 26 37 33 38 22 42 64 70 70 70 63 57 55 49 45 44 41 38 33 28 18 13 13 20 22 18 19 22 15 7
22 28 27 24 15 15 16 15 18 20 15 12 13 8 11 20 34 34 31 46 36 51 71 70 69 65 60 56 54 53 44 46 46 39 32 22 16 15 26 23 21 17 19 13 7
24 29 27 26 21 19 15 18 18 18 14 9 8 8 8 13 23 34 32 31 38 47 56 71 70 63 58 54 54 50 48 47 45 41 31 26 22 23 27 26 23 19 17 11 5
27 27 29 27 25 25 18 15 14 12 17 13 7 8 9 8 19 34 30 28 38 42 64 66 65 62 56 57 54 52 44 46 45 37 29 23 30 30 28 26 20 20 14 9 7
27 26 28 28 26 25 25 21 16 12 8 9 8 9 10 10 11 19 31 31 31 43 56 65 65 61 57 54 53 51 46 45 43 32 27 28 35 36 30 24 21 20 12 10 7
27 28 28 25 27 29 32 32 23 16 9 12 10 6 13 10 10 17 35 34 27 38 47 62 65 60 58 56 51 50 45 44 43 29 30 38 33 35 30 26 22 19 10 10 7

GFSSW_500_spd_012.txt.gz
Wind_Speed
38 40 40 41 40 40 40 41 42 43 46 48 53 58 63 63 58 60 56 47 50 51 50 48 41 44 44 49 47 44 49 45 41 38 29 33 33 40 35 38 37 31 29 35 38
26 30 34 39 41 41 39 39 41 43 44 46 51 55 60 67 71 71 63 61 62 59 54 53 51 51 51 46 50 52 52 46 34 44 38 37 42 38 41 41 35 35 32 37 41
28 30 32 34 36 38 39 40 40 40 41 42 45 50 55 57 59 66 64 59 62 66 64 61 58 53 56 52 56 52 51 45 48 45 50 51 42 43 45 41 34 35 34 36 41
27 29 31 34 36 38 41 41 42 42 44 43 44 44 47 55 59 59 68 66 64 62 66 64 62 64 61 59 57 60 59 57 54 42 51 55 42 46 42 38 29 35 38 40 41
32 34 35 37 38 39 40 42 43 44 46 47 48 47 46 49 54 56 58 62 68 73 69 68 67 64 68 66 64 65 64 58 48 46 54 53 51 48 47 37 31 40 41 39 43
35 37 39 40 42 43 45 46 47 48 48 49 50 52 52 47 48 53 55 53 54 63 69 76 77 73 72 73 69 60 61 56 55 51 55 55 58 53 45 32 37 40 40 38 42
38 40 42 43 45 47 47 49 51 51 53 54 54 54 53 50 54 55 58 59 57 58 58 62 68 71 69 68 64 66 63 62 54 51 51 48 53 47 41 32 40 40 38 37 41
42 44 46 47 48 50 52 53 54 55 56 56 58 59 57 57 57 58 58 59 60 61 60 61 63 64 67 66 65 65 63 63 57 51 49 50 42 32 38 42 44 40 40 36 41
45 47 49 51 53 54 57 58 58 57 56 58 60 62 60 63 63 61 60 61 62 61 59 62 63 65 66 64 62 62 57 61 61 59 57 52 46 39 44 48 50 44 42 36 41
48 50 53 55 57 58 59 60 60 59 60 61 61 61 63 67 68 69 67 66 65 64 63 61 61 62 61 62 55 55 64 59 59 51 58 57 51 48 49 55 52 49 42 40 40
53 55 57 59 61 63 66 67 67 66 67 67 67 64 65 69 69 71 72 74 72 68 65 64 65 60 50 53 57 59 60 58 54 52 58 57 57 48 52 55 49 46 42 39 36
56 59 63 67 69 71 73 73 74 74 71 70 70 72 71 71 69 73 76 78 78 74 67 70 68 46 53 55 57 58 56 55 51 54 56 59 57 54 53 53 44 43 36 39 30
63 67 72 73 73 74 69 68 67 68 76 63 67 69 70 70 72 68 74 78 80 79 75 73 53 54 52 57 51 49 52 49 48 46 48 47 53 49 49 44 35 35 35 35 27
72 72 68 61 60 56 54 53 51 48 56 57 55 53 57 63 65 66 67 74 76 77 78 75 63 63 57 53 47 46 43 44 42 40 38 38 52 40 37 36 32 33 33 29 31
68 60 51 49 47 47 48 47 45 44 44 45 40 34 39 46 53 56 60 65 72 72 74 71 74 70 65 54 49 49 41 39 38 38 41 38 45 32 32 31 25 22 26 27 24
54 46 43 42 42 43 43 42 41 39 34 34 34 29 28 30 35 38 46 53 64 67 68 73 74 71 63 61 51 48 40 35 43 40 44 35 33 32 28 17 19 21 23 24 22
41 37 35 35 38 38 34 29 22 25 27 23 28 29 26 27 33 32 33 41 51 59 67 71 78 75 69 64 57 52 45 41 46 43 46 27 32 17 11 14 20 18 16 20 23
34 32 29 36 42 19 10 12 11 14 18 26 32 27 26 24 29 28 30 27 40 51 57 67 74 78 74 67 60 58 51 48 47 44 35 28 31 6 15 11 11 16 20 16 16
34 27 29 36 34 14 11 10 12 13 10 8 11 14 14 18 26 25 26 22 30 45 64 44 70 73 73 68 64 59 58 43 43 43 35 25 19 20 18 8 12 11 14 16 14
26 26 31 32 29 16 13 11 12 14 14 12 12 12 13 16 22 22 24 18 33 46 67 57 67 64 71 64 64 59 48 49 47 47 39 34 13 18 15 14 12 11 11 12 12
28 31 30 31 26 20 13 15 15 18 17 11 11 11 10 16 20 22 29 24 28 43 59 56 66 49 63 70 66 61 57 50 49 44 36 27 16 18 23 26 18 17 14 11 12
30 29 30 29 26 22 19 14 16 16 16 11 8 7 6 10 15 23 28 28 23 33 58 60 67 53 58 64 59 54 54 53 50 43 34 21 18 21 21 19 17 17 17 12 12
27 31 31 32 27 27 22 15 14 12 11 9 8 6 7 8 8 13 16 33 20 36 46 68 50 47 47 47 60 59 55 50 43 44 33 22 14 15 25 25 24 20 15 12 13
26 28 28 31 32 33 30 22 17 14 14 12 7 5 4 6 7 12 14 26 22 23 38 67 50 54 38 49 57 62 55 53 48 46 35 24 21 25 32 31 26 21 16 13 13
28 30 29 31 34 35 35 29 20 13 13 10 6 6 9 6 8 8 15 22 21 20 40 61 52 50 48 58 61 61 58 57 52 41 37 30 25 30 35 30 27 22 15 14 14
28 29 31 32 34 34 33 29 25 16 18 11 11 10 11 10 10 12 14 28 17 10 32 49 60 52 44 56 62 62 58 50 46 35 36 31 30 38 37 33 29 24 20 15 10
34 31 31 32 33 32 32 27 22 22 13 12 7 10 12 9 8 8 15 31 25 22 35 32 58 59 44 49 54 54 52 50 45 37 34 28 35 44 42 40 34 28 23 19 10

GFSSW_500_spd_015.txt.gz
Wind_Speed
24 26 31 37 40 40 42 42 41 43 45 49 52 52 61 66 62 63 58 54 56 53 50 50 51 47 47 49 45 45 47 46 41 33 33 24 26 28 41 41 40 41 41 37 40
27 28 29 29 31 35 39 43 45 46 47 49 49 49 51 56 68 70 56 53 55 57 58 53 52 54 54 52 51 52 48 47 43 38 30 31 29 30 35 36 42 42 39 42 40
27 29 31 32 33 34 36 37 38 39 42 46 48 49 52 54 56 66 67 62 57 60 62 61 57 57 58 52 51 50 54 46 45 38 39 36 40 38 42 44 42 46 40 44 42
30 31 32 33 34 36 38 39 40 41 43 44 45 46 46 50 53 56 60 68 67 65 66 64 62 64 65 62 55 56 54 52 48 48 47 46 43 43 47 51 55 44 43 44 41
32 34 35 37 39 41 41 42 43 44 45 46 47 48 48 49 47 52 54 59 62 71 76 76 72 69 66 66 63 65 62 59 54 53 52 55 59 62 61 52 51 46 45 47 46
33 34 35 37 40 42 44 46 47 48 50 50 50 49 50 49 51 52 49 51 57 62 62 73 71 67 64 66 67 59 61 62 61 61 59 62 57 58 59 53 46 49 49 48 45
37 39 40 42 43 44 45 45 48 52 53 54 55 55 54 49 51 53 54 55 55 57 58 62 72 72 68 72 69 66 69 69 67 63 62 58 59 55 50 52 48 53 51 49 45
41 43 44 45 47 48 49 50 51 52 53 53 56 57 55 57 59 57 55 56 58 55 58 60 62 65 68 64 67 68 68 67 55 54 56 47 58 45 45 45 45 43 42 48 43
44 46 49 50 53 55 56 56 57 57 57 58 59 59 58 59 63 64 63 60 59 59 61 63 63 62 63 62 62 61 60 51 52 51 46 45 53 45 42 43 45 42 49 47 45
45 46 48 50 53 55 57 60 63 63 63 63 62 60 62 62 63 67 67 67 65 63 61 63 66 66 66 65 59 51 53 60 55 51 44 45 49 42 46 46 47 47 50 51 46
50 53 56 58 60 62 63 65 65 67 65 67 69 66 65 66 64 64 65 69 71 70 67 66 69 64 52 56 54 58 61 58 51 46 39 41 43 48 52 45 46 47 49 53 46
57 60 62 64 67 70 72 73 75 72 71 68 68 69 69 67 68 66 67 68 69 72 73 73 70 43 55 55 56 55 58 52 51 48 39 40 43 46 46 48 42 43 43 47 45
61 65 70 74 75 72 69 65 66 65 75 65 65 67 67 68 67 66 70 70 70 71 74 77 53 57 60 56 56 56 52 50 46 44 37 40 52 47 48 43 39 39 44 45 37
67 71 72 63 60 49 47 44 47 48 63 57 60 57 58 62 63 66 66 69 70 72 68 72 65 64 64 59 53 51 49 46 47 49 46 39 50 44 42 34 38 34 34 31 31
68 63 50 41 34 36 39 41 40 39 39 28 35 34 33 42 47 51 60 61 66 68 64 66 66 70 70 55 55 46 42 42 44 45 40 43 47 41 33 34 29 27 29 26 28
59 45 38 33 28 33 39 36 31 22 16 13 10 11 19 18 21 33 38 56 58 62 66 65 63 68 69 64 59 49 44 45 42 38 44 40 47 36 25 29 27 25 20 19 26
43 34 30 30 35 36 21 14 8 7 10 16 24 28 14 20 22 20 24 26 30 47 60 63 69 69 68 72 65 57 51 43 43 43 45 39 41 28 21 26 20 21 22 23 26
37 35 33 32 34 28 18 11 9 6 12 18 27 24 30 26 21 21 25 29 21 27 34 59 65 70 67 70 72 67 62 55 52 40 38 35 35 24 21 19 13 13 16 17 21
33 33 35 34 36 24 14 7 9 9 13 12 7 6 5 11 17 20 25 23 32 33 34 40 53 61 70 72 71 70 63 49 35 28 24 21 21 19 20 14 11 14 18 15 12
33 32 32 36 34 29 20 12 13 14 15 14 5 11 9 14 15 15 17 28 29 34 31 35 37 58 64 72 71 59 52 50 50 39 29 21 19 16 19 19 15 12 12 11 12
33 34 32 35 36 32 24 17 15 15 16 12 8 7 8 13 9 15 18 28 28 44 29 35 43 51 55 59 71 69 51 57 44 37 32 24 17 20 23 13 12 10 13 6 7
33 36 36 35 37 37 30 20 15 13 12 9 5 7 6 10 12 10 14 25 27 31 43 33 35 39 49 40 59 62 53 55 54 45 30 23 16 22 25 26 22 19 20 10 9
34 34 33 35 35 36 34 25 19 11 12 10 11 7 5 6 8 6 15 19 18 23 33 40 34 45 46 41 47 47 52 47 49 33 35 24 16 20 21 24 22 24 16 12 9
35 35 37 35 35 33 32 27 24 14 12 11 8 6 5 7 11 9 14 15 10 16 30 40 49 39 40 37 42 47 49 46 51 43 32 35 16 28 26 23 25 22 18 15 15
34 34 34 34 35 33 31 27 23 15 18 13 7 7 9 11 12 15 14 13 6 9 26 25 57 50 32 49 43 48 47 44 49 41 31 26 27 22 22 31 27 24 20 18 14
35 33 34 35 32 31 29 25 26 19 14 13 13 11 12 14 14 16 19 17 11 12 19 26 54 57 31 52 43 43 41 43 41 39 32 24 29 30 20 23 34 30 25 20 15
37 35 34 33 38 27 28 27 24 23 19 14 13 12 12 11 14 12 12 19 14 11 18 34 52 48 29 38 38 43 44 44 39 41 34 34 35 35 33 36 45 35 29 25 18

GFSSW_500_spd_021.txt.gz
Wind_Speed
22 24 26 27 27 29 31 36 38 39 40 43 45 57 64 64 64 59 53 50 54 56 55 57 52 49 49 49 51 58 59 55 49 37 30 30 39 32 15 26 27 26 34 30 35
27 28 29 30 31 32 33 34 36 38 42 43 44 46 57 66 65 62 56 56 56 55 55 54 55 54 57 61 62 60 60 58 46 39 37 36 44 43 30 34 17 24 27 37 32
28 29 30 31 33 34 35 36 37 39 40 42 47 48 48 50 58 61 69 68 61 59 55 56 59 60 61 62 60 60 59 51 43 39 39 37 37 37 48 48 37 34 32 29 32
34 35 36 37 38 39 40 41 41 41 41 43 44 47 51 53 54 56 57 60 70 65 64 62 63 66 69 67 59 60 60 56 49 45 43 43 40 41 45 52 47 39 39 40 39
33 34 36 38 39 40 41 42 43 45 45 46 46 47 49 49 49 56 58 58 61 72 76 74 77 72 73 69 60 66 60 56 50 49 46 47 48 45 46 47 46 43 47 51 55
34 35 37 38 39 41 43 46 47 47 47 47 49 50 50 48 51 53 57 59 61 63 66 68 68 63 68 70 66 59 57 55 53 53 53 53 51 51 48 49 49 48 51 52 54
31 34 37 39 42 44 46 48 49 50 52 53 53 52 50 50 57 55 57 56 55 58 59 59 61 63 64 67 71 69 65 63 59 56 57 53 54 46 44 45 45 47 48 45 43
34 36 39 41 43 46 49 52 54 55 56 56 56 56 53 56 55 56 58 58 58 58 57 58 59 60 62 64 64 69 73 70 58 58 56 55 51 43 44 41 41 40 34 35 40
35 39 43 45 48 49 51 55 59 60 61 62 62 59 56 59 60 58 58 59 61 60 60 61 63 62 61 59 60 60 65 65 53 50 54 61 47 45 41 39 39 35 31 32 27
39 40 41 45 51 55 60 65 64 63 63 64 65 65 64 64 63 63 62 61 62 63 64 64 64 64 62 60 56 55 55 52 49 53 54 53 51 45 37 37 34 32 34 28 31
42 46 50 53 57 61 66 74 76 78 77 76 69 67 68 69 67 66 65 64 65 64 66 70 70 61 48 51 53 53 54 51 49 48 47 45 45 40 32 32 33 34 29 29 34
46 48 51 57 60 68 77 82 80 78 77 55 67 67 67 64 70 67 67 66 67 66 66 69 64 50 55 56 60 59 55 48 45 46 44 38 43 40 33 34 32 34 29 35 36
44 47 53 57 64 70 63 55 48 44 43 30 34 47 46 57 60 62 65 66 65 67 67 66 53 56 61 65 64 57 55 47 46 49 43 43 50 46 33 27 32 34 36 34 29
45 48 53 58 61 59 53 48 25 25 7 6 10 13 29 30 46 48 52 57 61 60 60 64 56 56 60 66 63 59 54 52 53 52 47 45 56 42 28 28 31 31 38 23 21
45 48 51 55 54 43 37 22 21 14 8 3 5 6 2 8 20 24 31 43 52 53 54 54 57 60 63 57 64 56 54 53 52 51 49 51 47 23 28 25 25 27 25 21 23
45 47 50 51 48 37 30 25 24 16 16 16 13 19 5 9 14 17 5 16 24 31 48 52 55 58 57 57 63 59 58 52 49 47 50 38 44 20 21 23 27 19 20 21 27
43 45 46 47 41 37 32 27 26 23 19 18 18 19 21 5 12 20 13 12 15 18 37 52 51 55 55 59 57 58 58 55 54 53 45 33 41 28 16 20 14 19 20 25 24
41 45 42 42 41 35 33 28 28 22 22 21 20 17 19 25 18 11 13 16 18 21 24 35 46 53 54 55 59 58 61 60 59 55 43 40 48 18 20 17 10 14 19 21 17
39 44 43 40 40 34 33 30 27 24 25 27 27 17 13 21 21 26 23 23 28 31 32 36 45 41 53 56 53 55 64 51 57 54 51 46 40 27 18 11 8 18 15 13 10
39 42 44 40 36 35 30 28 27 24 19 23 25 16 21 14 17 10 13 18 27 31 33 33 38 35 43 60 62 58 53 56 56 55 54 45 41 31 15 9 13 13 15 9 11
41 41 45 42 35 35 29 28 25 22 23 16 27 14 15 16 13 15 12 13 12 27 32 31 33 34 44 54 58 55 53 61 57 57 51 46 35 10 12 18 17 17 13 13 14
39 41 45 46 41 35 28 28 28 25 21 17 14 11 11 15 12 13 15 17 21 20 29 31 31 35 40 45 53 65 61 58 62 55 50 43 26 12 15 22 17 18 15 17 14
35 39 44 46 42 31 30 27 26 26 22 16 12 11 10 10 14 14 11 11 13 16 19 23 22 25 40 47 41 59 61 56 58 52 49 46 32 18 14 20 19 19 25 11 14
35 34 39 44 43 35 29 29 25 24 22 17 11 9 4 6 19 17 16 10 7 16 14 14 20 26 34 35 47 55 65 59 58 61 49 50 32 14 12 19 28 20 23 15 11
35 32 37 40 40 39 33 30 28 23 24 20 11 8 9 12 13 20 23 17 11 11 16 8 8 20 35 37 48 54 69 64 64 62 59 44 36 18 23 25 26 25 17 18 17
34 31 30 34 38 39 38 31 27 23 24 19 17 8 17 17 19 18 22 21 21 15 16 11 9 20 35 43 43 53 67 66 66 61 59 41 32 16 23 24 23 24 16 22 20
33 33 30 33 34 36 37 32 27 24 20 24 14 13 12 12 15 19 19 17 19 21 8 11 9 13 24 29 36 49 66 63 63 57 48 45 34 28 32 41 30 27 26 27 21

GFSSW_500_spd_024.txt.gz
Wind_Speed
21 22 23 24 25 28 30 33 36 37 40 39 40 42 49 51 59 62 62 48 52 52 52 51 45 45 45 46 46 47 58 52 48 47 39 30 38 37 31 33 29 26 35 40 38
23 24 26 28 29 30 31 33 34 36 38 41 42 43 43 47 51 52 66 61 57 58 58 58 58 58 56 52 52 54 59 57 48 46 47 44 45 33 38 41 35 30 38 40 34
26 27 29 30 31 33 33 33 35 37 40 41 41 44 46 47 47 49 60 70 66 62 56 59 63 65 64 61 62 59 63 54 49 48 52 47 42 48 40 43 44 36 37 27 32
27 28 29 31 32 34 35 37 39 41 42 42 43 45 45 46 50 52 53 65 73 72 65 60 61 63 66 67 62 65 65 64 54 54 53 49 45 44 42 34 37 38 44 45 46
26 27 29 30 32 33 35 37 39 41 43 45 47 47 46 46 44 54 60 56 70 74 73 72 71 67 66 65 61 63 59 62 62 60 55 52 52 45 43 41 40 41 39 41 42
24 26 28 29 31 33 36 37 39 40 43 44 46 49 48 48 55 54 55 59 63 72 79 77 75 75 80 73 71 67 68 65 65 63 60 60 57 49 46 40 39 45 42 40 43
23 25 27 29 32 35 38 41 43 45 47 47 46 48 49 52 57 56 58 57 58 63 68 69 68 68 71 80 76 74 75 75 69 66 61 54 55 52 43 37 39 40 43 46 43
26 29 33 35 37 40 42 45 47 49 52 53 53 53 48 58 59 61 59 57 61 61 61 63 65 67 67 69 73 76 78 71 57 58 60 55 56 45 40 44 46 44 45 41 40
30 32 34 37 40 43 48 50 54 58 57 60 62 62 59 62 63 62 61 61 62 62 63 63 66 63 63 67 69 68 66 63 50 51 58 61 51 46 43 44 43 42 38 36 36
34 37 39 41 44 49 50 52 56 62 67 74 73 70 67 69 68 66 66 65 66 64 63 67 68 65 63 62 63 61 59 57 54 50 50 51 49 47 43 41 42 40 35 31 27
36 39 41 44 48 50 53 57 62 69 71 78 83 83 81 74 71 72 70 68 69 69 68 67 69 63 53 56 56 57 61 56 50 50 46 45 49 48 44 41 40 36 36 28 29
37 40 43 45 46 49 55 62 71 73 70 53 56 53 70 57 76 76 73 71 71 71 73 72 63 55 60 65 61 59 58 52 51 51 47 43 44 44 43 41 39 29 31 30 28
38 41 43 44 47 51 56 62 62 41 37 18 15 18 24 31 46 53 66 67 70 73 70 67 61 61 61 66 64 60 57 53 53 50 47 50 43 46 36 38 31 32 28 28 27
37 40 42 44 47 51 54 52 44 32 24 29 8 10 14 17 23 38 41 46 55 61 67 68 60 62 64 65 64 64 57 55 54 51 51 46 47 39 34 34 31 28 29 28 24
36 40 41 44 46 50 50 45 38 36 33 28 25 16 12 7 5 17 26 37 46 49 57 56 61 63 63 60 63 57 61 59 57 54 54 48 45 25 34 30 24 26 27 21 17
37 39 41 44 46 49 46 43 36 33 29 25 29 24 17 8 14 12 19 18 25 30 46 51 54 55 58 59 60 58 62 62 59 57 57 42 42 24 23 17 22 21 20 16 17
38 38 39 43 45 47 42 39 31 29 25 23 20 26 26 13 16 19 14 15 15 6 27 37 37 51 56 59 58 59 60 61 61 61 46 40 41 17 12 17 24 19 16 16 22
37 37 39 42 45 43 40 37 29 27 30 19 23 22 21 21 14 22 21 7 9 8 24 30 37 45 53 57 58 58 58 60 59 58 52 49 43 31 16 25 19 17 15 17 11
36 38 37 40 43 44 39 37 32 32 31 24 13 23 16 18 18 14 18 14 17 19 23 25 33 44 48 52 58 56 60 55 59 59 56 52 47 37 25 23 11 12 7 7 11
33 36 35 37 41 44 36 32 31 30 26 22 20 20 10 11 17 16 16 18 19 26 28 30 30 27 32 48 55 54 55 57 59 57 57 51 48 39 27 24 15 12 5 8 14
35 34 36 35 40 40 38 30 29 26 26 23 20 17 14 10 10 11 13 14 11 16 21 26 29 30 33 40 49 55 55 55 59 59 54 51 47 30 26 20 18 9 11 10 8
40 34 35 36 38 39 39 35 28 25 24 23 21 18 11 12 10 12 12 15 21 13 11 18 24 21 30 41 44 52 56 56 60 58 54 51 43 28 25 25 20 11 7 5 5
39 36 36 36 38 35 35 30 30 23 20 18 16 16 10 11 10 10 13 8 11 16 17 14 19 18 16 40 43 52 56 59 58 60 56 51 34 34 29 25 16 14 11 5 7
40 35 34 33 37 38 36 31 27 22 20 19 16 13 7 8 12 14 18 20 19 16 11 17 17 18 12 32 49 49 55 61 60 58 56 51 38 35 32 25 24 17 11 8 10
40 35 34 30 30 32 34 36 33 19 20 19 13 14 7 7 17 21 22 23 21 20 13 8 10 8 18 29 46 50 55 65 64 58 55 53 42 42 32 30 18 17 14 7 10
41 37 31 30 32 31 33 34 35 22 24 20 15 11 15 18 19 18 22 22 22 20 15 8 12 10 13 19 35 48 49 65 66 61 58 53 48 29 30 29 28 16 17 11 14
40 40 37 32 29 29 31 34 37 31 17 22 14 11 12 21 24 22 13 13 17 15 14 13 16 2 6 10 32 44 43 62 65 63 62 56 51 39 33 28 27 21 19 16 17

GFSSW_500_spd_027.txt.gz
Wind_Speed
18 20 22 23 25 28 31 33 36 38 39 40 41 40 39 43 47 48 55 59 51 48 49 50 51 51 51 50 51 52 55 50 45 40 39 45 48 41 37 39 38 41 40 39 34
19 20 21 22 24 26 29 31 34 35 38 40 41 42 43 42 43 45 56 62 65 60 54 53 54 53 58 54 55 55 59 52 43 41 44 49 46 36 38 35 33 37 41 43 40
21 23 24 25 27 28 29 31 32 33 36 39 40 41 42 44 47 50 50 57 60 66 63 59 59 63 60 56 57 59 61 51 47 46 45 45 51 40 46 45 30 34 42 41 40
22 22 23 25 27 28 30 31 32 33 35 38 40 42 43 44 45 51 53 55 58 59 65 70 67 64 64 63 57 59 60 58 51 50 52 51 51 50 50 48 40 38 44 45 44
23 24 26 26 27 28 29 30 32 33 36 38 40 42 44 44 46 52 52 54 58 60 61 69 74 73 67 65 68 69 66 65 63 58 58 57 57 53 50 48 46 41 45 42 39
23 24 23 24 26 27 29 32 34 36 38 39 40 42 44 46 54 53 56 55 55 58 63 64 70 76 78 73 67 64 64 65 67 65 64 63 59 58 57 49 51 45 45 45 41
18 21 23 26 29 31 34 37 39 41 42 44 45 46 45 50 54 57 59 58 60 59 59 62 66 67 80 81 76 69 71 71 70 66 68 63 63 59 50 51 47 46 45 44 39
22 24 27 30 33 35 37 40 42 44 46 47 50 52 54 56 56 59 59 61 62 62 62 63 64 67 66 78 80 77 77 74 68 71 70 68 63 53 53 53 46 42 38 40 42
26 29 31 33 36 38 40 43 46 48 50 52 54 53 58 64 64 66 63 65 65 65 64 66 67 64 65 67 72 80 76 72 69 67 74 72 53 54 47 49 49 45 45 44 47
27 29 32 35 38 42 44 46 48 52 55 57 60 64 69 72 75 73 72 72 69 72 71 70 67 67 66 66 70 69 66 69 70 63 62 69 58 52 47 45 48 49 46 45 45
30 32 35 39 41 42 43 46 48 52 59 63 68 74 78 79 82 80 80 76 77 78 75 74 73 67 59 61 61 62 64 65 62 60 57 59 58 53 51 47 45 44 45 44 40
32 35 37 39 40 41 44 47 51 55 61 68 72 66 58 55 54 58 68 75 76 79 80 79 73 65 64 67 65 64 63 60 58 55 53 51 53 54 51 46 43 41 42 41 39
31 32 35 36 39 41 45 48 53 57 62 63 53 43 35 34 35 27 41 51 58 68 74 79 72 69 69 69 66 66 64 60 58 55 52 54 56 52 47 44 41 41 39 37 33
29 31 34 37 39 42 45 48 52 58 59 50 37 32 28 26 21 24 29 36 35 47 55 68 69 73 73 70 68 66 63 60 60 55 55 51 55 48 39 40 43 40 38 33 31
30 33 35 37 39 42 44 47 51 53 50 39 36 28 25 23 23 16 17 31 36 42 43 54 64 69 68 65 69 62 62 62 61 58 55 52 52 30 36 35 32 30 30 27 29
35 34 37 37 38 41 44 46 49 49 37 35 34 24 15 18 21 25 19 20 21 25 42 49 45 53 60 59 64 63 64 58 60 60 62 49 50 22 30 29 28 30 31 29 25
33 35 37 36 38 40 43 44 44 39 32 35 28 21 26 15 16 23 19 10 19 18 18 37 40 45 49 54 56 62 64 62 60 62 52 49 50 25 15 28 28 30 28 20 19
34 36 36 35 37 38 40 42 42 36 28 29 23 20 20 22 15 19 10 21 11 14 13 16 27 34 44 52 50 58 60 62 64 58 48 50 47 34 14 24 25 23 18 19 21
36 37 36 34 35 37 39 43 43 34 26 26 23 20 17 17 12 12 8 13 16 13 8 8 13 25 33 43 50 52 56 52 53 55 52 51 44 40 24 24 21 18 18 18 15
35 37 36 35 34 36 37 40 39 33 24 25 27 23 17 15 11 10 7 11 15 13 16 16 14 18 27 37 46 50 51 51 54 55 55 51 47 38 34 18 20 17 17 14 17
36 39 36 33 31 33 36 36 36 32 26 23 25 26 22 14 12 8 9 13 12 13 14 20 22 23 23 30 36 43 50 54 52 54 55 52 50 40 32 28 28 20 20 17 18
39 40 39 35 31 31 35 38 37 30 25 24 22 22 20 17 12 10 10 10 13 16 12 12 13 19 23 31 33 38 48 54 57 56 55 54 51 46 33 33 26 22 17 19 14
36 41 42 39 35 29 29 33 36 34 24 23 22 21 19 17 11 9 7 11 10 14 17 19 21 16 19 29 39 41 48 55 58 61 60 58 53 28 37 35 31 23 23 18 9
37 39 42 40 36 34 31 31 31 31 26 22 21 19 17 18 17 9 14 15 17 19 16 15 21 17 17 23 35 45 48 55 61 60 57 56 52 37 40 36 33 28 24 14 7
39 37 42 41 34 33 32 33 34 35 26 21 16 16 12 14 17 18 23 22 21 23 22 17 16 17 14 20 27 38 50 56 63 60 56 54 43 47 39 39 36 35 28 16 7
39 35 39 41 35 31 31 32 32 34 31 19 15 14 12 17 27 20 24 24 27 24 21 25 17 17 13 15 24 32 47 55 62 63 59 55 47 51 45 42 38 33 28 19 14
37 36 37 38 34 30 29 31 33 34 30 18 14 10 17 25 29 16 12 12 13 21 15 17 18 19 16 18 19 26 38 51 60 63 60 55 53 50 48 44 34 31 31 21 15

GFSSW_500_spd_030.txt.gz
Wind_Speed
17 18 19 20 21 24 27 30 32 34 36 38 38 39 40 40 39 39 46 52 58 58 56 50 51 48 46 48 50 51 54 49 43 40 38 44 47 46 46 48 47 44 39 40 41
18 19 20 21 22 23 25 27 29 32 33 34 35 37 39 43 44 44 44 51 56 60 61 60 51 53 55 50 53 55 58 51 44 41 39 43 47 45 48 50 48 43 38 34 33
19 20 21 22 23 24 26 28 30 32 34 36 37 37 38 39 39 43 47 49 52 56 58 68 63 58 55 56 58 58 61 52 49 47 45 49 49 50 54 54 47 42 40 35 36
19 20 21 22 24 25 27 28 30 32 34 36 38 39 40 41 44 45 44 45 51 54 55 59 70 69 66 59 56 59 62 56 53 52 50 47 49 53 53 50 47 43 43 45 43
23 24 24 24 25 26 27 29 30 31 33 35 36 38 40 43 45 48 47 47 48 50 55 57 60 66 75 72 63 64 60 60 59 56 55 52 56 56 59 53 50 48 45 46 44
18 19 20 20 21 23 25 28 30 32 33 35 36 36 40 45 47 47 49 50 52 52 53 55 59 61 66 71 75 68 65 67 64 61 59 59 55 55 58 50 48 47 47 50 53
18 19 22 24 25 27 29 30 32 34 36 37 39 40 42 47 48 49 51 54 54 54 55 57 59 62 64 68 67 73 78 72 68 66 67 64 67 64 56 54 54 51 52 53 42
20 22 24 26 27 29 32 35 38 40 42 44 45 46 48 49 51 51 55 58 58 58 56 61 63 63 63 65 67 68 76 83 76 70 67 69 74 65 60 58 54 49 49 52 44
24 25 26 27 30 32 35 38 41 42 44 45 47 49 51 53 56 59 60 61 63 64 62 66 64 64 66 66 67 69 70 70 75 77 76 75 66 60 60 61 57 55 55 51 43
27 28 29 31 34 36 36 37 41 43 44 46 50 53 56 60 63 66 66 66 68 66 70 70 71 69 68 68 66 65 65 70 71 71 83 84 68 70 62 60 60 60 51 46 46
27 29 30 31 33 34 36 37 38 44 47 48 51 56 59 62 69 76 75 78 76 75 76 74 76 70 64 67 65 67 68 66 66 66 64 69 72 66 64 62 55 51 47 45 43
27 29 30 31 33 35 37 39 40 42 46 50 54 60 68 75 74 68 70 70 73 77 75 72 75 71 71 74 71 69 68 67 64 63 63 61 65 61 62 58 50 44 44 43 42
30 29 32 31 33 36 38 40 42 44 47 50 57 67 68 62 54 47 44 39 39 43 52 64 66 69 77 77 75 73 70 67 66 63 61 57 61 58 55 54 49 46 43 41 40
29 29 30 32 34 37 39 40 42 46 47 54 60 62 53 50 37 37 29 26 28 29 33 46 55 64 73 79 76 76 73 69 66 63 59 56 63 54 47 45 42 40 38 35 38
28 30 30 33 36 37 38 40 42 46 51 52 58 52 46 36 28 27 28 25 27 26 25 29 39 52 66 74 78 75 73 69 67 65 60 56 62 48 40 41 38 33 33 38 35
30 31 34 37 38 38 38 39 41 44 47 50 46 42 37 26 28 27 28 26 29 26 22 27 28 38 51 61 66 68 70 67 67 64 63 54 56 42 33 34 34 34 32 32 31
35 35 37 38 39 39 39 39 41 42 47 49 37 34 34 23 27 30 24 22 14 16 14 20 22 36 35 47 58 62 67 61 63 66 55 52 52 25 27 31 31 31 33 32 31
35 36 37 39 40 40 39 38 39 40 43 43 32 30 30 31 24 24 19 15 13 13 12 19 18 25 34 33 42 54 59 65 68 60 51 49 45 30 30 18 11 27 31 28 25
36 37 37 38 39 40 38 37 38 39 42 43 28 27 22 21 27 19 12 10 9 9 11 3 13 13 25 27 30 44 50 51 54 59 54 53 40 36 34 32 28 19 22 25 23
37 37 36 37 39 39 38 36 37 40 41 40 33 31 26 21 18 18 13 11 12 11 13 9 9 12 16 19 29 34 41 46 52 52 55 49 44 44 36 26 26 23 17 20 19
41 40 39 37 37 38 36 34 33 38 40 40 31 30 29 25 19 15 13 12 10 11 8 10 9 10 12 15 22 27 40 45 48 51 50 49 51 49 43 38 24 21 18 17 21
44 41 40 39 38 39 36 36 34 35 39 40 32 28 25 23 16 14 13 12 10 9 11 10 8 8 15 22 24 29 37 43 50 52 52 52 53 48 46 41 32 28 18 20 19
42 42 42 40 40 39 36 34 33 36 37 38 29 27 22 19 17 13 11 10 8 11 10 13 14 13 14 18 26 28 32 43 51 55 56 57 55 43 47 42 35 37 28 28 21
42 41 42 40 41 42 39 34 32 33 36 37 24 22 17 13 21 18 18 16 19 17 17 18 16 18 17 19 23 29 33 40 52 57 58 59 58 26 24 30 34 34 31 27 22
42 40 41 42 39 41 40 37 33 34 32 31 19 18 15 13 21 28 27 21 20 23 23 24 16 17 18 21 22 27 34 40 52 59 61 60 60 31 31 37 41 40 33 29 27
40 38 39 40 38 39 40 36 32 32 35 24 16 16 19 22 29 21 19 13 15 22 23 25 22 19 16 19 20 24 28 40 50 59 60 62 57 46 40 45 45 41 36 32 29
36 34 36 39 37 37 38 36 32 32 30 24 17 13 16 22 19 20 25 19 12 13 19 19 21 22 14 20 23 17 21 37 48 57 61 63 52 52 46 47 47 41 34 30 29

GFSSW_500_spd_033.txt.gz
Wind_Speed
15 16 17 17 18 20 21 22 24 25 27 30 32 34 35 34 36 38 40 42 46 48 52 56 53 51 50 46 46 45 51 49 46 44 41 44 45 45 48 43 44 41 39 40 42
17 18 19 19 20 22 23 25 26 26 26 27 28 31 32 33 37 42 42 43 42 43 47 53 58 59 55 52 50 51 55 51 43 43 40 45 51 52 47 43 43 43 45 45 44
17 18 19 20 21 22 23 24 26 27 29 30 32 33 34 34 36 36 38 40 43 45 44 51 58 64 62 62 59 58 58 47 46 46 46 47 48 53 53 53 50 46 45 48 48
18 19 20 21 23 23 24 25 26 27 28 30 32 33 35 37 38 37 37 39 39 41 45 50 52 61 68 69 63 63 61 54 47 52 51 52 52 55 57 55 52 50 48 48 46
19 20 21 22 23 24 25 25 25 26 27 28 30 33 35 36 36 37 39 41 42 44 45 46 50 53 58 62 69 70 62 61 56 53 52 55 58 57 57 55 53 50 50 47 44
17 16 17 18 19 21 22 24 26 28 29 31 33 35 37 39 39 39 39 40 43 45 47 49 51 53 57 56 59 60 73 68 62 61 57 61 61 61 56 55 55 54 51 50 42
19 19 21 22 24 26 27 28 29 29 30 32 34 36 37 39 42 43 45 47 47 45 47 50 53 54 56 56 57 57 64 69 77 66 65 62 67 64 58 57 61 58 54 48 42
20 21 22 24 25 26 28 29 31 32 34 35 37 38 40 41 44 46 48 50 52 51 52 54 56 57 58 59 59 59 61 65 63 72 73 67 69 60 59 63 60 58 50 50 51
22 22 24 26 26 27 30 31 32 34 35 37 38 40 42 43 44 47 50 54 57 58 60 62 60 60 61 62 63 64 62 62 61 64 71 79 70 66 64 63 62 62 61 58 57
23 24 24 27 28 27 29 30 32 34 35 38 39 41 42 46 50 51 53 55 58 62 63 64 66 66 64 67 63 62 64 65 65 63 69 71 66 72 70 69 67 65 64 62 55
24 24 24 26 27 27 27 29 33 36 38 38 40 44 47 49 52 54 56 57 61 65 68 72 71 67 68 69 67 69 68 67 68 66 67 66 65 61 69 71 64 64 64 58 54
24 24 23 24 25 26 27 30 31 33 36 39 42 45 48 50 52 54 58 64 66 67 69 72 75 74 75 70 69 73 73 71 69 67 67 66 62 62 62 59 61 62 59 56 49
24 24 24 26 28 30 31 34 35 38 39 42 45 46 47 49 52 56 59 56 50 46 42 47 57 59 69 71 70 74 76 74 72 70 67 67 64 59 56 57 55 53 52 51 45
27 27 28 29 30 33 34 36 38 40 40 43 44 46 47 49 50 50 48 40 35 32 31 29 28 37 46 63 69 73 75 76 75 73 69 67 66 62 54 51 51 44 41 40 39
29 29 30 31 33 34 35 37 39 39 40 38 42 44 47 51 52 41 39 33 27 28 30 25 30 26 34 46 56 67 72 75 75 75 73 65 69 51 50 44 39 35 32 33 36
30 30 31 33 34 36 37 38 38 38 38 40 42 44 46 45 40 39 36 37 34 28 21 26 25 27 21 29 37 47 62 69 72 74 76 61 66 49 41 37 35 34 34 33 34
32 32 33 34 36 37 37 38 38 37 38 40 40 42 44 42 38 31 28 25 25 18 15 17 17 22 24 25 30 35 43 59 67 73 68 65 66 41 35 36 37 38 37 36 36
34 35 34 35 36 38 38 39 39 37 36 38 40 41 41 38 32 29 25 21 16 15 13 15 18 16 24 28 26 25 34 37 59 66 62 66 59 39 37 22 33 40 39 35 42
35 37 36 36 37 39 40 39 40 39 37 39 38 41 36 27 29 24 21 16 12 14 18 11 8 12 12 18 25 21 31 34 36 55 66 63 47 45 41 29 14 18 33 42 36
39 38 36 37 37 39 39 38 40 39 37 38 41 42 36 27 24 20 18 15 13 17 14 11 9 9 14 12 22 24 22 32 38 45 58 57 48 45 47 40 40 35 23 18 25
41 41 37 36 35 37 39 36 38 38 37 38 40 42 29 25 17 17 16 14 12 13 12 11 8 9 13 11 22 22 24 29 35 42 49 55 50 50 49 35 42 32 33 22 24
41 42 39 37 35 36 38 37 37 36 36 38 40 34 24 18 15 15 15 12 10 10 11 10 9 8 10 12 10 11 25 21 35 41 47 53 51 52 49 38 32 27 28 24 25
37 41 40 36 36 36 37 37 38 34 35 37 39 27 18 15 16 14 20 14 10 11 12 13 12 14 12 12 16 17 21 22 31 42 52 50 47 42 48 44 36 33 29 27 25
35 39 41 37 36 37 37 37 36 32 33 36 35 23 16 14 19 26 22 20 20 17 17 19 17 15 14 17 17 16 20 23 28 40 50 54 44 31 40 43 44 38 34 26 24
33 36 41 38 36 38 36 38 36 31 31 35 27 21 19 18 22 23 22 17 14 15 17 21 21 21 18 17 17 19 19 24 27 32 48 52 43 35 31 37 49 44 37 31 25
32 33 38 38 34 35 36 36 35 30 30 26 21 15 18 21 23 20 27 23 22 13 20 25 23 19 23 18 20 17 18 22 26 28 48 55 50 41 44 45 51 52 41 35 31
30 31 33 39 32 33 34 34 34 29 27 23 15 13 16 18 19 23 26 23 22 21 15 15 18 17 18 20 18 17 15 19 26 32 45 60 56 46 47 46 55 52 47 41 34

GFSSW_500_spd_036.txt.gz
Wind_Speed
11 12 13 14 16 17 18 19 20 21 23 24 26 28 29 30 32 35 34 34 35 37 44 49 49 58 52 48 46 43 48 48 43 40 39 40 44 45 48 47 42 42 42 40 35
14 15 16 17 18 18 19 20 21 22 23 24 25 26 27 28 30 34 35 36 39 40 44 45 48 51 56 56 55 52 51 51 42 46 41 41 47 49 50 49 48 47 44 41 40
16 16 17 19 20 20 21 22 23 24 25 26 27 27 28 29 31 31 31 32 35 38 42 44 45 47 53 56 60 58 61 47 46 48 49 45 50 51 51 53 53 47 48 48 43
18 19 19 20 22 22 22 23 23 24 25 26 28 29 31 31 32 33 34 35 37 37 39 41 44 47 47 52 56 63 58 60 56 54 50 49 47 53 58 58 54 59 54 50 45
18 19 19 19 19 20 21 22 23 23 24 25 25 26 28 31 33 34 35 37 38 40 41 42 42 44 47 49 53 58 57 65 61 61 54 50 54 53 57 57 59 60 59 53 50
16 16 16 18 19 20 21 22 24 26 27 29 31 31 32 33 33 34 35 36 38 40 41 43 45 48 48 49 52 51 56 62 68 67 62 59 54 58 58 55 58 63 60 56 54
16 18 19 20 22 24 26 27 28 29 31 31 32 33 34 36 36 38 39 40 42 44 44 45 47 49 51 53 52 53 58 58 61 65 66 68 67 69 56 60 62 60 58 58 55
18 19 21 22 23 25 27 28 28 29 29 30 31 31 33 35 37 39 40 43 44 46 48 49 51 52 52 54 56 58 60 61 57 59 58 70 74 64 63 61 66 61 59 61 58
15 16 19 21 21 22 23 24 25 25 26 27 28 31 33 36 38 41 44 46 48 49 50 52 53 53 56 59 61 60 62 62 58 57 62 69 64 60 64 72 72 67 66 65 63
16 16 17 18 20 21 22 23 23 25 26 28 30 32 32 36 38 41 44 46 49 51 53 54 56 58 62 65 62 62 64 62 65 60 66 68 62 57 64 77 70 66 64 67 64
18 18 17 16 16 19 20 22 25 27 29 30 32 35 36 38 42 44 46 48 49 51 53 55 56 60 65 65 67 69 70 70 68 66 71 69 63 57 59 62 68 72 68 66 65
19 18 18 18 18 20 21 24 26 27 29 31 33 35 38 41 41 44 45 45 46 47 49 49 53 57 62 68 71 71 75 74 74 73 70 70 69 62 59 61 61 63 62 66 68
21 21 20 20 21 21 23 24 26 28 30 31 34 37 39 41 42 43 44 44 44 45 46 48 47 53 55 60 66 74 77 72 77 79 73 73 72 68 62 60 59 60 58 56 59
21 21 22 22 23 24 26 27 29 32 31 34 33 35 38 40 43 43 44 44 44 44 42 44 38 42 45 52 54 65 70 74 77 79 80 74 75 71 64 62 58 54 54 53 49
22 24 25 24 25 27 28 29 31 32 35 32 38 38 41 43 44 44 46 48 46 41 38 31 35 34 36 37 39 44 54 63 64 77 80 78 79 70 67 63 57 51 46 43 43
23 26 27 28 27 28 29 30 32 33 35 37 37 38 41 43 45 48 49 47 44 35 29 28 24 27 28 30 29 28 33 39 40 46 59 78 64 71 65 58 52 46 42 37 40
25 27 29 29 30 30 30 32 33 33 35 37 37 39 40 43 44 47 42 36 31 22 17 17 19 23 25 24 21 19 23 26 38 48 57 70 52 69 63 52 49 45 41 38 38
26 29 31 30 30 32 32 33 32 32 33 36 38 37 38 41 42 37 33 24 22 16 17 19 15 14 15 18 22 25 20 26 30 36 44 50 45 66 57 43 50 46 40 39 36
29 30 32 32 32 33 33 34 35 33 34 36 35 35 37 41 33 22 18 17 16 14 15 17 21 13 15 17 19 24 29 23 28 27 33 38 42 59 58 53 38 32 42 40 38
33 33 31 30 32 32 32 33 35 33 34 35 36 35 37 26 16 17 15 17 12 15 16 17 16 11 16 15 13 22 27 27 26 31 21 30 34 56 53 48 43 33 34 41 43
31 33 33 29 31 31 31 32 33 34 35 34 34 36 25 13 15 17 16 18 12 14 13 16 16 12 13 15 19 19 21 19 19 25 15 21 31 38 48 47 42 38 33 32 26
32 32 33 28 30 30 30 31 31 33 33 33 32 28 15 14 13 19 21 24 19 13 11 13 15 13 14 15 15 10 19 25 22 23 25 20 18 37 54 46 49 39 32 25 19
29 30 32 28 29 30 30 30 30 32 32 30 31 20 13 16 19 20 25 28 18 14 14 14 13 13 11 12 15 9 7 9 26 29 33 19 12 30 40 49 46 50 46 39 33
29 29 28 26 28 29 29 30 30 31 29 27 26 11 10 14 19 22 23 26 20 14 17 19 16 16 16 19 18 14 11 16 16 26 30 33 29 28 37 43 39 36 39 39 38
28 26 27 28 28 30 28 29 28 28 25 25 19 10 12 16 17 21 24 21 23 22 9 18 19 19 17 18 21 20 18 16 21 23 29 35 37 30 46 48 46 42 41 41 34
25 23 28 30 29 31 29 29 27 27 24 22 14 10 16 18 21 20 22 20 18 18 14 14 13 20 19 19 22 18 22 24 25 22 26 34 49 51 54 50 50 49 44 39 38
31 31 29 32 32 31 27 26 26 21 24 19 9 12 14 16 16 20 27 23 18 13 21 14 8 7 12 15 19 14 13 21 28 25 24 32 44 46 49 56 57 50 44 40 36

GFSSW_500_spd_042.txt.gz
Wind_Speed
20 20 17 16 17 17 18 19 20 21 21 22 24 24 25 26 26 27 28 28 31 34 35 37 38 38 46 57 49 45 49 50 46 44 39 40 38 22 29 37 35 32 23 32 35
20 19 19 18 19 19 19 19 19 20 20 20 21 22 24 25 27 27 25 28 29 34 36 36 37 38 40 43 54 61 57 51 41 41 39 43 36 40 40 35 37 38 34 42 38
18 19 20 19 19 20 20 21 21 21 21 22 23 23 24 25 27 22 27 28 30 32 35 37 37 39 40 45 49 52 50 59 47 43 39 37 40 40 44 41 37 38 43 43 49
19 20 20 21 21 22 23 23 24 24 24 24 24 25 26 26 29 25 27 28 29 30 32 35 37 39 40 43 42 51 44 43 49 55 56 49 45 44 48 43 39 29 37 43 43
16 17 18 18 19 20 21 20 21 24 27 28 28 27 28 29 29 30 30 31 31 32 34 35 37 39 41 41 45 45 43 46 48 50 58 58 55 55 52 43 42 51 37 34 41
18 18 18 19 19 20 21 22 22 22 22 22 23 24 26 31 29 31 32 34 36 36 36 37 39 41 43 43 44 45 48 50 50 50 51 57 64 63 56 45 46 50 51 38 45
17 17 17 19 21 21 22 23 24 24 24 25 26 26 27 28 29 31 31 33 34 36 37 39 41 42 44 45 44 47 50 50 50 51 54 52 59 69 58 57 53 49 48 56 56
17 17 16 16 17 18 20 22 23 24 25 25 27 28 29 27 30 31 33 34 35 37 39 41 43 44 46 47 47 49 51 53 45 51 50 53 59 54 52 66 63 59 52 50 58
18 18 17 16 15 15 16 18 18 19 20 21 22 24 27 23 28 30 32 34 35 37 38 40 42 45 47 49 50 50 54 54 53 52 54 54 58 50 50 53 65 67 64 62 58
19 19 17 16 16 15 15 15 16 15 18 20 19 23 25 25 26 28 31 33 35 37 38 40 42 44 47 49 50 51 54 56 56 50 54 51 59 55 53 55 56 60 66 70 63
20 18 17 17 17 17 16 16 17 13 19 19 21 23 28 26 28 30 30 33 36 38 40 42 44 45 46 49 51 56 58 60 59 60 53 38 43 59 58 57 57 58 59 61 65
19 18 16 16 17 17 17 17 17 17 17 17 20 20 23 26 29 31 31 33 35 37 39 40 43 44 48 51 54 57 59 59 60 62 63 64 67 63 61 61 60 61 59 59 59
20 18 18 17 16 16 16 18 18 19 19 19 19 18 20 22 26 27 32 34 36 37 39 41 42 43 46 49 50 53 57 60 65 66 66 68 70 68 64 65 66 65 65 61 60
23 20 18 17 17 17 18 18 19 21 23 18 17 19 21 24 30 31 32 33 36 38 39 42 42 44 45 47 47 52 50 56 58 64 68 64 71 71 65 65 68 65 64 62 62
23 22 20 18 18 18 19 19 19 21 25 22 24 22 24 26 29 32 35 39 39 39 40 38 40 38 45 44 34 44 41 44 49 58 58 62 62 71 69 70 71 68 66 66 64
24 21 19 19 19 20 20 19 19 20 21 25 21 25 28 30 35 36 38 42 43 40 33 37 30 32 37 36 35 35 41 47 45 40 54 64 49 71 69 71 69 70 60 58 70
29 24 21 21 20 19 20 20 19 19 21 24 25 27 29 33 34 36 38 34 22 28 23 25 25 30 33 31 28 25 23 31 31 35 45 44 35 49 65 65 67 65 57 46 58
23 26 21 22 24 22 21 21 19 18 19 22 25 25 28 26 26 30 28 16 15 22 28 27 25 20 22 14 19 27 19 34 28 27 33 30 40 39 42 53 56 67 65 47 59
25 24 24 24 24 22 20 20 23 23 24 24 24 24 25 25 29 22 12 14 17 22 27 28 29 21 21 22 19 15 22 26 22 29 34 34 37 43 44 49 54 56 47 43 55
30 26 24 22 21 19 19 19 21 23 22 24 25 26 27 29 25 13 8 13 18 21 25 26 34 18 24 20 17 17 19 26 29 32 36 31 21 16 14 23 27 40 41 37 29
31 31 29 25 23 22 21 19 23 26 25 24 25 26 28 27 14 9 12 16 21 23 25 25 30 17 16 20 13 14 17 25 26 30 31 25 18 9 32 29 31 30 19 33 44
33 31 31 29 25 23 22 23 26 26 28 25 24 24 25 19 11 11 15 19 22 29 24 25 29 28 21 23 18 20 16 31 25 25 25 31 24 26 23 31 43 40 39 36 41
34 32 31 30 30 31 31 30 29 28 27 23 24 22 24 13 12 12 18 22 25 31 28 27 31 31 19 8 23 24 25 26 23 23 22 26 23 27 22 35 48 29 36 22 34
33 33 33 31 31 33 33 33 32 34 26 20 21 20 19 14 17 16 20 21 28 24 24 24 27 29 17 20 29 28 27 20 18 24 19 23 32 35 23 19 46 31 22 24 41
35 35 35 34 34 36 37 33 31 32 28 18 18 19 16 14 15 17 18 20 23 21 20 20 19 19 19 19 25 27 27 17 20 22 28 32 31 38 34 33 47 31 10 20 45
34 34 36 35 37 37 35 31 31 27 24 17 19 18 13 12 11 13 16 20 21 18 19 23 23 21 14 12 17 22 19 22 27 26 29 32 34 31 30 13 22 13 7 38 50
33 35 36 36 38 40 38 33 30 26 20 19 18 18 13 11 12 15 19 17 20 18 17 22 27 20 10 13 13 16 17 27 24 26 21 26 27 24 26 30 12 17 36 43 42

GFSSW_500_spd_045.txt.gz
Wind_Speed
21 21 21 22 21 20 19 18 18 19 19 20 21 25 25 24 24 25 26 26 29 32 36 40 43 45 45 43 46 47 53 56 47 44 44 36 41 49 39 36 33 41 29 22 34
20 21 21 20 21 21 20 19 19 19 19 19 19 20 22 24 24 23 25 27 28 29 32 35 39 40 43 41 42 46 49 49 42 39 38 37 45 40 49 46 48 39 36 39 36
18 20 21 22 22 20 21 20 20 19 20 20 21 20 21 22 22 23 24 25 27 28 30 33 37 39 40 40 42 43 41 44 49 46 41 39 39 49 45 49 48 45 38 36 42
18 17 18 19 21 23 23 23 23 23 22 21 22 22 23 23 22 23 24 25 25 27 29 32 35 40 41 40 41 43 42 41 40 54 57 48 45 45 59 52 46 38 46 39 32
19 18 17 17 17 17 19 20 21 22 22 24 25 26 26 27 23 24 25 27 27 28 30 31 33 37 39 40 42 43 41 44 43 48 52 55 57 48 45 54 60 46 40 51 49
16 16 17 17 17 18 19 20 20 20 21 22 23 23 26 29 27 26 29 28 29 30 32 34 35 36 37 38 40 41 44 44 45 42 47 51 58 66 56 53 51 43 43 51 52
17 17 16 17 17 17 18 19 21 22 23 23 23 23 24 25 26 26 27 29 29 31 33 35 37 38 40 39 40 41 43 44 43 43 45 52 54 51 46 62 61 47 44 51 53
17 16 17 17 17 16 16 17 18 19 20 21 23 24 25 23 25 26 27 29 31 33 34 36 37 39 40 42 43 45 46 46 40 44 44 48 56 45 44 47 54 63 49 51 57
18 18 17 15 14 14 13 13 12 13 15 16 18 20 21 21 23 23 27 28 30 32 34 36 37 39 41 43 44 47 46 48 45 45 47 48 52 44 44 49 51 51 56 59 56
23 21 20 17 15 14 13 12 11 12 15 15 16 19 17 19 17 24 25 27 29 31 34 37 39 41 42 44 45 46 48 50 48 48 50 50 54 52 49 51 53 53 55 58 60
27 25 21 18 16 15 14 14 14 11 16 13 12 15 15 16 16 21 21 25 28 31 33 36 39 42 42 43 47 48 50 54 53 56 58 61 61 56 57 59 58 55 55 58 59
26 26 23 21 18 16 16 14 14 13 15 11 16 15 17 18 19 20 19 22 26 28 31 34 37 39 44 45 47 50 53 54 54 54 57 59 63 59 58 59 60 61 59 58 59
28 25 23 21 19 18 18 17 17 16 15 14 15 16 14 16 18 20 23 23 25 28 31 34 35 38 41 43 46 48 50 52 56 56 58 62 63 62 59 59 60 61 61 63 62
24 27 22 20 19 18 18 20 19 19 18 17 14 16 16 18 22 23 23 22 25 27 29 31 34 37 39 42 45 50 48 52 56 58 61 55 67 64 60 59 62 63 64 61 60
24 23 22 20 21 20 20 20 20 20 23 19 12 17 19 19 22 25 27 28 27 29 33 32 35 36 38 42 43 47 47 53 56 60 62 63 66 64 62 63 65 65 66 65 61
25 20 22 18 18 20 21 21 20 20 22 24 21 17 18 22 24 26 29 29 33 35 35 31 27 31 39 40 39 42 39 43 47 47 59 57 58 64 64 61 61 67 69 65 64
25 22 21 21 14 20 24 25 22 19 22 27 22 21 20 22 26 27 31 31 30 30 30 24 22 25 36 35 27 31 35 32 30 34 46 38 38 57 58 57 61 62 65 64 66
31 27 24 22 20 19 20 21 18 21 21 21 23 23 20 23 23 27 31 31 15 27 22 25 23 24 31 30 26 19 18 25 29 27 26 28 30 41 49 43 49 60 64 57 58
31 31 30 28 25 22 19 19 21 21 19 20 21 23 23 25 27 28 30 17 22 17 23 26 22 24 27 29 32 29 19 22 25 26 30 25 25 21 31 45 46 53 56 60 58
33 32 31 29 26 25 24 25 23 25 22 22 25 23 24 24 25 27 24 18 19 21 23 24 27 25 23 29 27 25 23 24 27 29 28 29 32 31 27 37 39 49 49 47 44
32 32 32 31 29 28 28 26 27 28 30 27 26 25 25 25 25 23 12 13 18 23 28 30 33 30 26 26 23 19 22 27 24 24 29 33 25 27 23 33 36 35 48 40 45
30 31 31 31 30 31 31 33 35 30 29 31 32 25 21 23 22 13 11 15 22 25 28 29 31 25 26 25 25 26 32 28 24 21 23 25 28 27 29 34 34 33 37 46 51
32 30 29 31 31 33 33 33 30 29 28 27 25 21 18 21 20 13 12 17 24 24 26 22 20 23 19 20 22 22 29 27 30 33 30 30 27 25 25 30 31 28 48 47 46
31 33 33 31 32 34 35 34 29 29 28 27 19 16 17 19 17 8 15 19 22 22 25 22 19 25 27 22 22 25 25 23 28 34 22 19 26 24 30 32 18 26 52 46 39
32 32 34 32 33 35 36 36 32 30 27 25 18 19 17 17 13 12 12 16 21 25 22 20 20 26 32 25 20 19 26 23 27 27 26 25 27 23 29 34 8 29 22 38 37
32 32 34 33 33 34 35 36 35 31 28 21 22 18 17 15 12 11 12 16 17 18 24 25 30 26 32 23 23 14 12 22 24 28 24 24 25 30 28 30 13 17 33 27 32
32 33 33 35 33 34 35 36 35 33 26 26 21 16 18 15 11 12 13 14 13 16 21 19 22 24 18 21 17 12 17 18 20 21 27 25 25 22 25 33 17 19 30 26 31

GFSSW_500_spd_048.txt.gz
Wind_Speed
19 21 22 22 22 21 21 20 19 19 19 20 21 22 23 24 24 26 29 30 31 34 38 40 43 44 41 41 41 42 42 40 46 48 38 35 44 46 43 44 40 32 34 36 31
16 17 20 22 22 21 21 20 19 20 19 18 18 19 20 20 21 25 26 28 29 30 31 36 41 43 45 44 45 42 40 34 40 42 40 37 51 44 52 48 42 37 39 36 31
17 16 16 18 21 23 22 21 20 20 19 19 19 19 20 19 19 21 23 26 27 29 30 31 35 40 43 45 47 46 43 38 33 45 46 40 43 49 46 56 47 43 45 43 34
18 17 16 16 17 19 21 22 23 23 23 22 20 20 21 20 20 20 20 22 24 26 29 31 32 35 38 40 41 42 43 43 40 41 51 48 44 49 53 46 56 46 49 48 51
15 15 14 15 15 17 18 18 18 20 21 22 23 24 24 21 20 22 23 23 24 26 27 29 32 34 35 38 39 41 42 45 42 42 44 54 55 49 52 60 48 52 56 49 50
16 15 15 15 15 15 16 18 20 21 21 21 21 22 22 22 21 26 26 26 26 27 28 29 30 32 33 34 37 40 42 43 41 40 42 47 51 63 50 47 58 60 49 53 53
21 17 15 15 16 15 14 16 17 17 20 22 23 23 24 24 24 24 25 28 29 29 30 31 32 34 35 36 38 40 43 44 44 42 43 44 48 44 48 59 55 62 66 50 51
22 21 18 16 16 15 14 13 13 13 15 15 17 21 22 24 24 22 26 28 29 30 31 33 34 36 38 39 40 41 42 42 41 44 45 44 47 40 43 53 54 64 60 52 53
23 23 20 19 16 14 13 11 11 12 12 13 13 14 15 17 15 18 22 23 26 27 31 33 35 36 38 39 40 43 43 46 46 47 50 52 49 44 45 53 53 53 67 64 54
22 22 23 19 17 14 12 10 10 12 11 11 12 13 13 14 12 19 18 20 21 23 26 28 30 32 34 39 41 42 45 45 49 51 54 54 50 49 51 55 56 55 56 60 54
20 19 20 20 17 16 13 13 11 13 13 11 12 12 11 12 13 19 17 20 22 23 25 29 31 32 35 39 42 43 46 48 50 52 55 57 54 53 54 56 57 57 59 60 54
20 16 20 16 17 16 16 14 13 15 16 15 14 14 14 15 15 16 16 17 20 22 25 27 28 33 36 38 41 43 46 49 49 51 54 56 57 51 53 56 57 59 59 59 57
22 18 17 15 13 15 17 15 15 15 17 17 18 17 16 15 17 18 16 16 21 22 23 25 27 30 33 36 39 41 46 51 53 54 56 59 58 56 56 59 58 57 58 59 59
23 18 19 19 11 15 16 17 19 20 19 18 20 17 18 19 20 21 19 19 22 23 23 25 27 30 32 36 38 41 43 48 49 53 56 54 62 58 58 61 62 61 60 60 61
29 22 19 19 17 12 17 19 18 19 22 22 21 19 18 23 22 25 24 22 22 23 24 25 25 27 31 31 33 38 40 44 49 54 58 56 62 58 57 60 59 63 62 63 62
32 29 24 21 19 17 14 15 21 23 28 31 27 18 15 23 24 27 26 25 23 23 26 27 30 33 29 29 31 37 41 46 47 47 55 54 55 59 60 59 57 59 65 67 66
33 31 29 26 23 20 18 18 20 20 22 26 21 19 18 21 26 26 26 25 25 29 31 29 23 25 26 28 29 27 33 40 40 35 38 37 48 57 60 59 64 66 63 65 66
33 33 32 31 27 24 22 20 19 21 24 23 18 20 23 24 27 27 25 26 28 32 33 27 19 17 24 28 30 29 30 31 37 28 22 23 36 34 45 43 55 64 67 64 63
31 31 31 31 30 28 28 27 23 24 23 22 24 26 24 23 25 22 23 28 31 31 22 20 18 19 27 30 32 31 32 29 37 35 35 20 20 30 27 33 35 45 56 60 58
31 31 32 30 29 29 30 29 31 33 24 21 25 25 27 25 23 22 20 28 28 18 14 19 25 24 27 27 29 30 34 32 30 31 33 27 29 26 30 36 37 37 42 51 58
31 31 31 31 29 29 31 30 32 29 25 21 23 23 24 20 20 17 21 19 15 12 15 21 23 20 19 22 26 29 32 32 30 30 37 35 29 24 25 29 34 38 43 43 50
30 31 30 31 30 30 31 31 33 29 28 23 23 22 18 15 12 17 20 15 15 14 16 17 24 23 16 22 26 30 29 33 34 34 27 29 29 25 24 22 31 38 40 45 46
31 30 30 31 31 30 32 32 33 33 30 28 23 20 15 13 14 15 15 16 18 18 19 19 21 25 23 24 30 23 23 24 32 37 36 37 29 31 27 27 34 34 35 31 40
32 30 31 31 33 32 31 32 33 34 33 30 23 20 14 14 17 12 12 15 19 20 15 21 20 23 28 30 34 24 19 26 29 32 32 28 31 25 24 29 32 29 30 32 31
33 31 29 30 33 35 33 32 32 32 32 31 25 24 17 14 15 14 10 11 16 19 16 19 18 22 27 24 26 21 16 18 26 30 32 26 33 29 27 28 33 25 17 20 26
31 33 32 30 32 35 36 33 33 32 34 32 27 21 21 20 16 11 12 14 12 16 19 18 22 21 22 21 24 19 16 13 16 24 32 37 34 28 31 20 20 24 35 18 30
30 30 33 34 33 35 37 35 33 34 32 32 29 24 22 21 18 14 15 14 12 12 16 16 20 18 20 21 27 24 19 14 18 21 25 25 27 31 26 17 15 10 4 23 35